Preview of NWS' New Version of Forecast
This preview is not operational and should not be used for support decisions.
Latest weather observations around

Norwood, Norwood Memorial Airport (KOWD)

Using English Units (Switch to International System of Units)
Date/ Time (EDT) Wind (mph) Vis. (mi) Weather Sky Cond. Temp (°F) Rel. Humidity Wind Chill (°F) Heat Index (°F) Pressure Precip. (in)
Air Dwpt 6 hour Altimeter (inHg) Sea level (inHg) 1 hr 3 hr 6 hr
Max Min
Aug 18 05:53 Calm 5 Haze BKN006 72 67     84%   73 29.99 29.98      
Aug 18 05:46 Calm 2 Haze SCT006 72 67     84%   73 29.99        
Aug 18 05:33 Calm 1.75 Haze CLR 74 69     85%   75 29.98        
Aug 18 05:14 Calm 10 Partly Cloudy SCT012 75 69     82%   76 29.98        
Aug 18 04:53 Calm 9 Cloudy SCT005 OVC012 75 70     84%   76 29.98 29.98      
Aug 18 04:41 Calm 5 Haze BKN005 OVC010 75 70     84%   76 29.98        
Aug 18 04:33 S 3 5 Haze BKN003 OVC010 75 70     84%   76 29.98        
Aug 18 04:26 S 3 2.5 Haze OVC003 75 70     84%   76 29.98        
Aug 18 04:03 Calm 1.25 Haze OVC003 75 70     84%   76 29.98        
Aug 18 03:53 Calm 1.25 Haze OVC002 75 70     84%   76 29.98 29.98      
Aug 18 03:27 Calm 1.75 Haze OVC002 75 70     84%   76 29.99        
Aug 18 03:20 Calm 2 Haze OVC003 75 70     84%   76 29.98        
Aug 18 03:09 Calm 4 Haze OVC004 75 70     84%   76 29.99        
Aug 18 02:53 Calm 8 Cloudy OVC005 75 70     84%   76 29.99 29.98      
Aug 18 01:53 Calm 10 Cloudy OVC008 75 69     82%   76 30 30     0
Aug 18 00:53 Calm 10 Cloudy OVC009 75 69     82%   76 30 30      
Aug 18 00:07 Calm 10 Cloudy BKN011 OVC026 75 68     79%   76 30        
Aug 17 23:53 Calm 10 Mostly Cloudy FEW011 BKN026 75 68     79%   76 30 30      
Aug 17 23:51 Calm 10 Mostly Cloudy FEW011 BKN026 75 68     78%   76 30        
Aug 17 23:03 Calm 10 Partly Cloudy FEW019 SCT026 75 68     79%   76 30.01        
Aug 17 22:53 ESE 3 10 Mostly Cloudy FEW019 BKN026 75 69     82%   76 30 30   0  
Aug 17 22:16 SSE 5 10 Cloudy OVC016 76 70     82%   77 30.01        
Aug 17 22:07 Calm 10 Mostly Cloudy BKN014 76 70     82%   77 30.01        
Aug 17 21:53 SSE 5 10 Mostly Cloudy BKN015 BKN110 76 70     82%   77 30.01 30      
Aug 17 21:41 SSE 3 10 Mostly Cloudy BKN016 BKN110 77 70     79%   78 30.01        
Aug 17 20:53 SSE 6 10 Mostly Cloudy FEW055 BKN070 78 70     76%   79 30 30 0    
Aug 17 19:53 SE 5 10 Cloudy BKN031 OVC035 79 70     74%   82 29.99 29.98      
Aug 17 19:44 SE 3 10 Cloudy FEW021 BKN035 OVC046 79 70     74%   82 29.99        
Aug 17 19:37 Calm 10 Cloudy FEW023 BKN029 OVC048 80 70     71%   83 29.99        
Aug 17 18:53 SSE 5 10 Cloudy OVC050 80 70     71%   83 29.98 29.98      
Aug 17 17:53 SE 9 10 Mostly Cloudy SCT026 BKN032 82 69     65%   85 29.97 29.97      
Aug 17 16:53 ESE 7 10 Mostly Cloudy FEW025 SCT041 BKN049 84 70     63%   88 29.99 29.99      
Aug 17 16:45 ESE 7 10 Mostly Cloudy SCT024 SCT033 BKN041 82 70     67%   86 30        
Aug 17 15:53 E 7 10 Cloudy BKN023 BKN030 OVC038 83 70     65%   87 30.02 30.01      
Aug 17 14:53 SE 5 10 Cloudy FEW025 BKN033 OVC040 81 70     69%   84 30.04 30.04      
Aug 17 14:31 SSE 5 10 Cloudy SCT026 OVC037 82 70     67%   86 30.05        
Aug 17 14:11 E 5 10 Cloudy SCT024 BKN028 OVC039 81 69     67%   84 30.05        
Aug 17 13:53 Calm 10 Cloudy SCT019 BKN039 OVC050 82 69     65%   85 30.05 30.04      
Aug 17 12:53 ESE 5 10 Cloudy OVC015 80 69     69%   83 30.05 30.05      
Aug 17 12:17 SE 5 10 Cloudy OVC015 79 68     69%   80 30.06        
Aug 17 12:05 3 10 Cloudy OVC014 79 68     69%   80 30.06        
Aug 17 11:53 SE 6 10 Cloudy OVC015 78 68     71%   79 30.06 30.06      
Aug 17 11:20 SE 5 10 Cloudy OVC015 78 68     71%   79 30.06        
Aug 17 10:53 SE 3 10 Cloudy OVC012 77 68     74%   78 30.06 30.06      
Aug 17 10:09 5 10 Cloudy OVC010 76 67     74%   77 30.07        
Aug 17 09:53 SSE 3 10 Cloudy OVC009 76 67     74%   77 30.06 30.06      
Aug 17 08:53 S 3 10 Cloudy OVC007 75 67     76%   76 30.06 30.06      
Aug 17 07:53 S 3 10 Cloudy OVC006 73 67     81%   74 30.07 30.07      
Aug 17 07:40 Calm 10 Cloudy OVC005 73 66     79%   74 30.07        
Aug 17 07:16 S 3 10 Cloudy OVC004 72 67     84%   73 30.06        
Aug 17 06:53 S 5 10 Cloudy OVC005 72 66     82%   73 30.06 30.06      
Aug 17 06:14 S 3 10 Cloudy OVC004 71 66     84%   72 30.06        
Aug 17 05:53 SSE 5 6 Haze OVC005 71 66     84%   72 30.06 30.06      
Aug 17 04:53 SSE 6 10 Cloudy OVC007 72 65     79%   73 30.07 30.06      
Aug 17 03:53 SSE 5 10 Cloudy OVC009 72 65     79%   73 30.07 30.07      
Aug 17 03:22 S 6 10 Cloudy OVC009 72 64     76%   72 30.08        
Aug 17 02:53 SSW 6 10 Cloudy OVC010 73 64     73%   73 30.07 30.07      
Aug 17 01:53 SSE 5 10 Cloudy OVC010 72 64     76%   72 30.06 30.06      
Aug 17 01:42 SSE 5 10 Cloudy OVC009 72 64     76%   72 30.06        
Aug 17 00:53 ESE 3 10 Cloudy OVC010 72 64     76%   72 30.07 30.07      
Aug 16 23:53 S 3 10 Cloudy OVC013 72 64     76%   72 30.07 30.07      
Aug 16 22:53 S 3 10 Cloudy OVC014 71 65     81%   72 30.07 30.07      
Aug 16 22:39 S 5 10 Mostly Cloudy BKN014 71 64     79%   72 30.07        
Aug 16 21:53 Calm 10 Partly Cloudy SCT016 71 64     79%   72 30.05 30.05      
Aug 16 21:48 S 3 10 Partly Cloudy SCT016 72 64     78%   72 30.05        
Aug 16 21:21 SSW 3 10 Mostly Cloudy BKN015 73 65     76%   74 30.05        
Aug 16 20:53 SSW 8 10 Cloudy OVC014 75 66     74%   76 30.05 30.04      
Aug 16 20:51 SSW 7 10 Cloudy OVC014 75 66     74%   76 30.05        
Aug 16 20:21 SSE 7 10 Mostly Cloudy BKN021 75 65     71%   76 30.04        
Aug 16 19:53 ESE 6 10 Mostly Clear FEW032 74 65     74%   74 30.03 30.03      
Aug 16 18:53 ESE 7 10 Mostly Clear FEW025 78 66     67%   79 30.03 30.02      
Aug 16 17:53 E 9 10 Clear   81 66     61%   83 30.02 30.02      
Aug 16 16:53 NNE 8 10 Clear CLR 81 66     61%   83 30.03 30.03      
Aug 16 15:53 NNE 10 10 Clear CLR 82 66     58%   84 30.04 30.04      
Aug 16 14:53 N 9 10 Clear CLR 83 66     57%   85 30.05 30.04      
Aug 16 13:53 NE 9 10 Clear CLR 84 66     55%   86 30.04 30.04      
Aug 16 12:53 NNE 6 10 Clear CLR 82 66     58%   84 30.05 30.04      
Aug 16 11:53 ENE 8 10 Clear CLR 82 63     53%   83 30.06 30.06      
Aug 16 10:53 Calm 10 Mostly Clear FEW012 79 62     56%   79 30.07 30.07      
Aug 16 09:53 5 10 Clear CLR 75 63     66%   75 30.07 30.07      
Aug 16 09:33 3 10 Mostly Clear FEW009 74 63     69%   74 30.07        
Aug 16 08:53 E 3 10 Cloudy OVC008 72 64     76%   72 30.07 30.07      
Aug 16 08:32 NNE 3 10 Mostly Cloudy FEW003 BKN007 71 63     76%   71 30.07        
Aug 16 08:23 3 9 Partly Cloudy SCT003 SCT007 71 64     79%   72 30.07        
Aug 16 08:04 Calm 4 Haze OVC002 68 63     84%     30.08        
Aug 16 07:53 Calm 1 Fog OVC002 67 63     87%     30.08 30.08      
Aug 16 07:30 Calm 0.5 Fog VV002 67 62     84%     30.07        
Aug 16 07:12 Calm 0.25 Fog VV003 66 62     87%     30.06        
Aug 16 06:53 Calm 0.5 Cloudy OVC002 66 61     84%     30.06 30.06      
Aug 16 05:53 Calm 0.25 Clear VV002 64 59     84%     30.05 30.04      
Aug 16 05:35 Calm 0.75 Haze VV002 64 59     84%     30.05        
Aug 16 05:18 ESE 3 2 Haze OVC002 65 60     84%     30.05        
Aug 16 05:04 Calm 8 Cloudy OVC002 64 60     87%     30.05        
Aug 16 04:53 NW 3 10 Cloudy OVC003 63 58     84%     30.05 30.05      
Aug 16 04:30 Calm 4 Fog/Mist OVC003 61 57     87%     30.03        
Aug 16 04:13 E 6 1.5 Haze OVC003 59 54     83%     30.02        
Aug 16 03:56 Calm 3 Haze OVC003 61 56     83%     30.04        
Aug 16 03:53 Calm 1.25 Fog/Mist OVC003 61 57     87%     30.04 30.04      
Aug 16 03:28 Calm 0.75 Haze VV002 60 55     83%     30.03        
Aug 16 03:23 Calm 2 Haze BKN003 60 55     83%     30.03        
Aug 16 03:18 Calm 0.75 Fog/Mist VV003 61 57     87%     30.04        
Aug 16 03:09 Calm 1.5 Haze BKN003 61 56     83%     30.04        
Aug 16 03:06 Calm 4 Haze BKN003 61 56     83%     30.04        
Aug 16 02:59 Calm 2.5 Haze BKN003 62 57     84%     30.05        
Aug 16 02:53 Calm 1.75 Haze BKN002 62 57     84%     30.05 30.05      
Aug 16 02:51 Calm 1.75 Haze BKN002 63 57     83%     30.05        
Aug 16 02:23 Calm 0.25 Fog VV002 61 57     87%     30.05        
Aug 16 02:15 Calm 0.75 Haze VV005 60 55     83%     30.05        
Aug 16 02:13 Calm 1.5 Haze CLR 60 55     83%     30.05        
Aug 16 02:06 Calm 9 Clear CLR 60 55     83%     30.06        
Aug 16 01:53 Calm 2.5 Haze CLR 62 57     84%     30.06 30.05     0
Aug 16 01:45 Calm 4 Haze FEW003 63 58     84%     30.06        
Aug 16 01:42 Calm 1.25 Haze FEW003 63 58     84%     30.06        
Aug 16 01:37 Calm 0.5 Clear VV003 63 58     84%     30.06        
Aug 16 01:28 Calm 0.5 Clear VV002 63 58     84%     30.06        
Aug 16 01:17 Calm 1.75 Haze CLR 63 58     84%     30.07        
Aug 16 00:53 Calm 4 Haze FEW002 64 58     81%     30.07 30.07 0    
Aug 16 00:37 Calm 3 Light Rain CLR 64 59     84%     30.07   0    
Aug 16 00:20 Calm 1.75 Haze CLR 63 58     84%     30.07        
Aug 15 23:53 Calm 10 Clear CLR 65 60     84%     30.07 30.06      
Aug 15 22:53 Calm 10 Clear CLR 66 61     84%     30.05 30.05      
Aug 15 21:53 E 3 10 Clear CLR 68 61     78%     30.06 30.05      
Aug 15 20:53 E 5 10 Clear CLR 70 62     76%     30.05 30.05      
Aug 15 19:53 ENE 5 10 Clear CLR 72 62     71%   72 30.02 30.02      
Aug 15 18:53 ESE 10 10 Clear CLR 77 61     58%   77 30.01 30.01      
Aug 15 17:53 E 8 10 Clear CLR 80        %     30.01 30.01      
Aug 15 16:53 ENE 10 10 Clear CLR 80        %     30.01 30.01      
Aug 15 15:53 NNE 10 10 Clear CLR 82 63     53%   83 30.02 30.02      
Aug 15 14:53 NE 10 10 Clear CLR 82 62     51%   83 30.02 30.02      
Aug 15 13:53 ENE 8 10 Clear CLR 82 60     47%   82 30.02 30.02      
Aug 15 12:53 ENE 8 10 Clear CLR 80 61     52%   81 30.04 30.04      
Aug 15 11:53 3 10 Clear CLR 78 62     58%   78 30.06 30.05      
Aug 15 10:53 3 10 Clear CLR 75 61     62%   75 30.06 30.06      
Aug 15 10:20 6 10 Partly Cloudy SCT012 73 61     66%   73 30.06        
Aug 15 09:53 5 10 Cloudy OVC011 71 62     73%   71 30.05 30.05      
Aug 15 08:53 NE 5 10 Cloudy OVC007 69 61     75%     30.04 30.03      
Aug 15 07:53 E 5 6 Fog/Mist OVC002 65 61     87%     30.03 30.03      
Aug 15 07:43 NE 3 3 Haze OVC002 65 60     84%     30.03        
Aug 15 07:24 Calm 1 Fog/Mist OVC002 64 60     87%     30.02        
Aug 15 07:15 E 5 2 Fog/Mist OVC002 64 60     87%     30.02        
Aug 15 06:53 NE 5 0.5 Clear VV002 64 59     84%     30.01 30.01      
Aug 15 05:53 Calm 0.75 Haze VV002 64 59     84%     30 30      
Aug 15 05:07 Calm 1 Fog/Mist VV002 64 60     87%     29.99        
Aug 15 04:53 NNE 3 0.75 Fog/Mist VV002 64 60     87%     29.99 29.99      
Aug 15 04:08 Calm 0.75 Haze VV002 65 60     84%     29.98        
Aug 15 04:01 Calm 1 Haze VV002 64 59     84%     29.98        
Aug 15 03:53 Calm 0.75 Haze VV002 64 59     84%     29.98 29.98      
Aug 15 03:37 Calm 0.75 Fog/Mist VV002 62 58     86%     29.98        
Aug 15 03:29 Calm 0.25 Clear VV003 62 57     84%     29.98        
Aug 15 03:13 Calm 0.25 Fog OVC002 61 57     87%     29.97        
Aug 15 03:06 Calm 1.25 Haze OVC002 61 56     83%     29.97        
Aug 15 02:53 Calm 7 Cloudy OVC002 61 55     81%     29.97 29.97      
Aug 15 02:51 Calm 7 Cloudy OVC002 61 55     82%     29.97        
Aug 15 02:36 Calm 7 Mostly Cloudy BKN004 61 56     83%     29.97        
Aug 15 02:29 Calm 2.5 Haze BKN004 60 55     83%     29.96        
Aug 15 02:03 Calm 0.25 Clear VV004 59 54     83%     29.96        
Aug 15 01:56 Calm 1.5 Haze FEW004 59 54     83%     29.96        
Aug 15 01:53 Calm 7 Clear CLR 60 55     83%     29.96 29.96      
Aug 15 01:29 Calm 1.5 Haze SCT004 62 57     84%     29.96        
Aug 15 01:09 Calm 0.5 Clear VV004 62 57     84%     29.96        
Aug 15 01:02 Calm 1.5 Haze FEW004 62 56     80%     29.96        
Aug 15 00:53 Calm 9 Clear CLR 61 56     83%     29.96 29.96      
Aug 15 00:49 Calm 3 Haze CLR 61 55     82%     29.96        
Aug 15 00:26 Calm 1.5 Haze CLR 61 56     83%     29.96        
Aug 14 23:53 Calm 8 Clear CLR 63 57     81%     29.95 29.95      
Aug 14 23:16 Calm 4 Haze CLR 64 58     81%     29.95        
Aug 14 23:06 Calm 1.5 Haze CLR 63 57     81%     29.95        
Aug 14 22:53 Calm 10 Clear CLR 65 59     81%     29.94 29.94      
Aug 14 21:53 Calm 10 Partly Cloudy SCT070 67 60     79%     29.92 29.92      
Aug 14 20:53 Calm 10 Partly Cloudy SCT075 68 60     76%     29.92 29.91      
Aug 14 19:53 ENE 3 10 Clear CLR 71 60     68%   71 29.91 29.9      
Aug 14 18:53 NE 6 10 Cloudy OVC085 73 59     61%   73 29.91 29.91      
May 15 06:53 S 6 3 Fog/Mist OVC003 59 57     93%     29.85 29.85      
May 15 04:53 S 5 9 Clear   57 54     89%     29.86 29.85      
May 14 23:53 S 5 10 Clear CLR 57 53     87%     29.9 29.9      
May 14 13:53 SSW 9 10 Partly Cloudy SCT035 70 53     55%     29.93 29.93      
May 14 06:19 SSE 5 10 Cloudy BKN007 OVC030 52 49     89%     30.02        
May 13 23:53 SSE 5 10 Clear CLR 50 47     89% 48   30.08 30.07      
May 13 13:53 NNE 6 10 Mostly Cloudy BKN021 BKN026 60 49     67%     30.18 30.18      
May 13 00:53 NNE 5 6 Fog/Mist OVC006 52 49     89%     30.11 30.11      
May 12 14:15 N 3 10 Cloudy BKN009 OVC013 53 50     89%     30.14        
May 11 20:53 SSE 3 10 Clear CLR 54 32     43%     30.07 30.07      
May 11 12:53   10 Clear CLR 68 35     30%     29.96 29.96      
Jun 12 05:53 Calm 10 Clear CLR 69 65     87%     29.96 29.96      
Jun 10 22:53 SSW 7 10 Clear   73 56     55%   73 29.99 29.99      
Jun 10 15:53 S 13 10 Clear CLR 83 55     38%   82 29.91 29.91      
Jun 08 08:53 Calm 10 Clear CLR 66 55     68%     30.04 30.04      
Jun 07 22:53 Calm 10 Clear CLR 52 50     93%     30.02 30.02      
Jun 07 11:53 NE 8 10 Cloudy OVC075 64 50     60%     29.96 29.96      
Jun 06 13:35 NNE 14 6 Light Rain and Fog/Mist SCT009 SCT018 OVC039 49 47     93% 44   29.83   0    
Jun 06 11:53 NE 11 1.25 Light Rain and Fog/Mist BKN007 OVC014 50 48     93% 46   29.84 29.83 0    
Notice The following observation data may not be complete
Jun 06 05:05   1.75 Fog/Mist OVC006          %              
Jun 05 21:53 ENE 9 2.5 Light Rain and Fog/Mist OVC006 54 53     97%     29.84 29.83 0    
Jun 05 18:53 ENE 8 1.75 Fog/Mist OVC006 55 53     93%     29.83 29.82